Terminal Aerodrome Forecast
Issued by NWS

Home | Current Version | Previous Version | Text Only | Print | Product List | Glossary On
Versions: 1 2 3 4 5 6 7 8 9 10 11 12 13 14 15 16 17 18 19 20 21 22 23 24 25 26 27 28 29 30 31
000
FTUS41 KBUF 311100
TAFJHW
TAF
KJHW 311120Z 3112/0112 20005KT P6SM BKN008
     FM311400 22007KT P6SM VCSH BKN025 BKN150
     FM311700 25007KT P6SM BKN035 BKN150
     FM010100 VRB03KT P6SM SCT035 SCT150
      AMD LTD TO CLD VIS AND WIND=

USA.gov is the U.S. government's official web portal to all federal, state and local government web resources and services.